FW4228 Lothian MD US current weather conditions

sailwx.info

Wind from 023

Air temperature 23.3° C
Dewpoint 14.1° C

Last reported at 2020-Oct-01 16:06 UTC.
Time now 2020-Oct-01 16:48 UTC

Location: N 38°48' W 076°40'.
View on Google Maps.

See reports from other nearby stations

  
Tides and Currents Weather Stations Pressure Air Temp Water Temp Dewpoint Dewpoint Depression Visibility Wind Speed Wind Dir Waves Ship Positions
date/time (UTC)wind fromknots sea level pressurealtimeterstation pressurevisibilityair tempwater tempwave heightnotes
2020-Oct-01 16:06 023 23.3
2020-Oct-01 16:01 033 0 gusting 2 23.3
2020-Oct-01 15:56 091 23.3
2020-Oct-01 15:51 007 0 gusting 2 23.3
2020-Oct-01 15:46 084 23.3
2020-Oct-01 15:40 347 0 gusting 2 23.3
2020-Oct-01 15:35 314 0 gusting 2 23.3
2020-Oct-01 15:30 230 3 gusting 4 22.8
2020-Oct-01 15:25 248 1 gusting 2 22.8
2020-Oct-01 15:22 335 22.8
2020-Oct-01 15:19 325 22.2
2020-Oct-01 15:06 181 0 gusting 2 21.7
2020-Oct-01 15:00 004 21.7
2020-Oct-01 14:55 353 21.7
2020-Oct-01 14:50 278 21.7
2020-Oct-01 14:45 289 2 gusting 4 20.0
2020-Oct-01 14:40 208 3 gusting 4 20.0
2020-Oct-01 14:35 206 20.0
2020-Oct-01 14:30 313 19.4
2020-Oct-01 14:25 231 2 gusting 4 18.9
2020-Oct-01 14:19 213 3 gusting 4 18.9
2020-Oct-01 14:14 262 18.3
2020-Oct-01 14:09 218 1 gusting 2 18.3
2020-Oct-01 14:04 254 3 gusting 4 17.8
2020-Oct-01 13:59 224 0 gusting 2 17.8
2020-Oct-01 13:54 241 2 gusting 4 17.8
2020-Oct-01 13:49 207 17.2
2020-Oct-01 13:44 225 3 gusting 4 16.7
2020-Oct-01 13:39 203 0 gusting 2 16.7
2020-Oct-01 13:34 226 1 gusting 2 16.1
2020-Oct-01 13:29 224 16.1
2020-Oct-01 13:24 233 15.6
2020-Oct-01 13:19 240 1 gusting 2 15.6
2020-Oct-01 13:14 230 2 gusting 4 15.6
2020-Oct-01 13:09 204 0 gusting 2 15.0
2020-Oct-01 13:04 228 3 gusting 4 15.0
2020-Oct-01 12:59 230 0 gusting 2 15.0
2020-Oct-01 12:54 220 14.4
2020-Oct-01 12:48 226 0 gusting 2 14.4
2020-Oct-01 12:43 233 2 gusting 4 13.9
2020-Oct-01 12:38 243 2 gusting 4 13.9
2020-Oct-01 12:33 239 1 gusting 2 13.9
2020-Oct-01 12:28 260 1 gusting 2 13.3
2020-Oct-01 12:23 231 13.3
2020-Oct-01 12:17 232 0 gusting 2 13.3
2020-Oct-01 12:12 226 12.8
2020-Oct-01 12:07 214 12.8
2020-Oct-01 12:02 248 1 gusting 2 12.8
2020-Oct-01 11:57 243 2 gusting 2 12.2
2020-Oct-01 11:52 239 12.2
2020-Oct-01 11:47 234 12.2
2020-Oct-01 11:42 235 12.2
2020-Oct-01 11:37 240 12.2
2020-Oct-01 11:32 226 12.2
2020-Oct-01 11:27 196 12.2
2020-Oct-01 11:22 196 12.2
2020-Oct-01 11:16 231 12.2
2020-Oct-01 11:11 215 12.2
2020-Oct-01 11:06 223 12.2
2020-Oct-01 11:01 211 12.2
2020-Oct-01 10:56 212 12.2
2020-Oct-01 10:51 200 12.2
2020-Oct-01 10:46 202 12.2
2020-Oct-01 10:41 238 12.8
2020-Oct-01 10:36 238 12.8
2020-Oct-01 10:30 238 12.8
2020-Oct-01 10:25 238 12.8
2020-Oct-01 10:20 238 12.8
2020-Oct-01 10:15 238 12.8
2020-Oct-01 10:10 238 12.8
2020-Oct-01 10:05 205 12.8
2020-Oct-01 10:00 205 12.8
2020-Oct-01 09:55 205 12.8
2020-Oct-01 09:50 238 12.8
2020-Oct-01 09:45 222 12.8
2020-Oct-01 09:40 228 12.8
2020-Oct-01 09:35 212 12.8
2020-Oct-01 09:30 246 2 gusting 4 12.8
2020-Oct-01 09:25 236 2 gusting 2 12.8
2020-Oct-01 09:20 202 12.8
2020-Oct-01 09:14 225 0 gusting 2 12.8
2020-Oct-01 09:09 238 0 gusting 2 12.8
2020-Oct-01 09:04 171 12.8
2020-Oct-01 08:59 220 13.3
2020-Oct-01 08:54 253 13.3
2020-Oct-01 08:49 176 13.3
2020-Oct-01 08:44 219 13.3
2020-Oct-01 08:39 270 13.3
2020-Oct-01 08:34 218 13.3
2020-Oct-01 08:29 227 13.3
2020-Oct-01 08:24 248 1 gusting 2 13.3
2020-Oct-01 08:19 278 2 gusting 4 13.3
2020-Oct-01 08:14 220 13.3
2020-Oct-01 08:09 210 2 gusting 4 13.3
2020-Oct-01 08:04 244 2 gusting 4 13.3
2020-Oct-01 07:59 283 0 gusting 2 13.3
2020-Oct-01 07:54 221 0 gusting 2 13.3
2020-Oct-01 07:48 196 0 gusting 2 13.3
2020-Oct-01 07:43 149 0 gusting 2 13.3
2020-Oct-01 07:38 258 0 gusting 2 13.9
2020-Oct-01 07:33 199 13.9
2020-Oct-01 07:28 227 13.9
2020-Oct-01 07:23 199 13.9
2020-Oct-01 07:18 198 13.9
2020-Oct-01 07:13 207 13.9
2020-Oct-01 07:08 186 0 gusting 2 13.9
2020-Oct-01 07:03 133 0 gusting 2 13.9
2020-Oct-01 06:58 220 13.9
2020-Oct-01 06:53 217 13.9
2020-Oct-01 06:48 192 0 gusting 2 13.9
2020-Oct-01 06:43 227 13.9
2020-Oct-01 06:38 226 0 gusting 2 13.9
2020-Oct-01 06:33 215 2 gusting 4 13.9
2020-Oct-01 06:28 159 0 gusting 2 13.9
2020-Oct-01 06:23 189 1 gusting 2 13.9
2020-Oct-01 06:18 197 13.9
2020-Oct-01 06:13 230 2 gusting 2 13.9
2020-Oct-01 06:08 237 2 gusting 2 13.9
2020-Oct-01 06:02 212 0 gusting 2 13.9
2020-Oct-01 05:57 209 13.9
2020-Oct-01 05:52 210 13.9
2020-Oct-01 05:47 209 13.9
2020-Oct-01 05:42 220 13.9
2020-Oct-01 05:37 234 13.9
2020-Oct-01 05:32 218 13.9
2020-Oct-01 05:27 232 2 gusting 4 13.9
2020-Oct-01 05:22 236 0 gusting 2 13.9
2020-Oct-01 05:17 201 13.9
2020-Oct-01 05:12 253 13.9
2020-Oct-01 05:07 217 13.9
2020-Oct-01 05:02 202 0 gusting 2 13.9
2020-Oct-01 04:57 203 13.9
2020-Oct-01 04:52 228 13.9
2020-Oct-01 04:46 226 1 gusting 2 13.9
2020-Oct-01 04:41 241 13.9
2020-Oct-01 04:36 207 13.9
2020-Oct-01 04:31 223 13.9
2020-Oct-01 04:26 226 13.9
2020-Oct-01 04:21 241 0 gusting 2 13.9
2020-Oct-01 04:16 095 1 gusting 2 13.9
2020-Oct-01 04:11 309 0 gusting 2 13.9
2020-Oct-01 04:06 196 13.9
2020-Oct-01 04:01 276 13.9
2020-Oct-01 03:56 244 14.4
2020-Oct-01 03:51 217 14.4
2020-Oct-01 03:46 228 14.4
2020-Oct-01 03:41 249 0 gusting 2 14.4
2020-Oct-01 03:36 254 0 gusting 2 14.4
2020-Oct-01 03:30 227 14.4
2020-Oct-01 03:25 195 14.4
2020-Oct-01 03:20 237 1 gusting 2 14.4
2020-Oct-01 03:15 253 14.4
2020-Oct-01 03:10 242 14.4
2020-Oct-01 03:05 204 0 gusting 2 14.4
2020-Oct-01 03:00 241 1 gusting 2 14.4
2020-Oct-01 02:55 215 14.4
2020-Oct-01 02:50 260 14.4
2020-Oct-01 02:45 215 0 gusting 2 14.4
2020-Oct-01 02:40 256 14.4
2020-Oct-01 02:35 217 15.0
2020-Oct-01 02:30 192 15.0
2020-Oct-01 02:25 250 1 gusting 2 15.0
2020-Oct-01 02:20 215 15.0
2020-Oct-01 02:15 182 0 gusting 2 15.0
2020-Oct-01 02:10 243 2 gusting 4 15.0
2020-Oct-01 02:04 238 2 gusting 2 15.0
2020-Oct-01 02:00 223 2 gusting 4 15.0
2020-Oct-01 01:54 197 15.0
2020-Oct-01 01:49 190 1 gusting 2 15.0
2020-Oct-01 01:44 128 2 gusting 4 15.0
2020-Oct-01 01:39 211 15.0
2020-Oct-01 01:34 113 1 gusting 2 15.0
2020-Oct-01 01:29 253 2 gusting 4 15.0
2020-Oct-01 01:24 238 15.0
2020-Oct-01 01:19 285 0 gusting 2 15.0
2020-Oct-01 01:14 201 15.0
2020-Oct-01 01:09 222 15.0
2020-Oct-01 01:04 241 15.0
2020-Oct-01 00:59 233 15.0
2020-Oct-01 00:54 235 15.0
2020-Oct-01 00:49 199 15.6
2020-Oct-01 00:44 209 15.6
2020-Oct-01 00:39 232 15.6
2020-Oct-01 00:34 138 15.6
2020-Oct-01 00:29 266 0 gusting 2 15.0
2020-Oct-01 00:23 213 15.0
2020-Oct-01 00:18 272 15.0
2020-Oct-01 00:13 272 0 gusting 2 15.0
2020-Oct-01 00:08 213 15.0
2020-Oct-01 00:03 213 15.0
2020-Sep-30 23:58 288 15.0
2020-Sep-30 23:53 202 15.0
2020-Sep-30 23:48 163 15.6
2020-Sep-30 23:43 243 15.6
2020-Sep-30 23:38 248 15.6
2020-Sep-30 23:33 248 15.6
2020-Sep-30 23:28 185 15.6
2020-Sep-30 23:23 192 16.1
2020-Sep-30 23:18 236 16.1
2020-Sep-30 23:13 137 16.1
2020-Sep-30 23:08 241 16.7
2020-Sep-30 23:03 235 16.7
2020-Sep-30 22:58 178 17.2
2020-Sep-30 22:53 177 17.8
2020-Sep-30 22:48 208 18.3
2020-Sep-30 22:43 208 18.9
2020-Sep-30 22:37 208 18.9
2020-Sep-30 22:32 202 19.4
2020-Sep-30 22:27 194 20.0
2020-Sep-30 22:22 229 2 gusting 4 20.0
2020-Sep-30 22:17 220 20.0
2020-Sep-30 22:12 155 20.6
2020-Sep-30 22:07 244 1 gusting 4 20.6
2020-Sep-30 22:02 190 20.6
2020-Sep-30 21:57 239 0 gusting 2 20.6
2020-Sep-30 21:52 218 3 gusting 4 20.6
2020-Sep-30 21:47 228 2 gusting 4 21.1
2020-Sep-30 21:42 173 2 gusting 4 21.1
2020-Sep-30 21:37 213 2 gusting 4 21.1
2020-Sep-30 21:32 132 0 gusting 2 21.1
2020-Sep-30 21:27 227 21.1
2020-Sep-30 21:22 236 1 gusting 2 21.1
2020-Sep-30 21:17 165 4 gusting 6 21.1
2020-Sep-30 21:12 216 2 gusting 2 21.1
2020-Sep-30 21:07 203 2 gusting 4 21.1
2020-Sep-30 21:02 171 4 gusting 6 21.7
2020-Sep-30 20:57 169 4 gusting 4 21.1
2020-Sep-30 20:52 221 2 gusting 4 21.1
2020-Sep-30 20:46 234 0 gusting 2 21.1
2020-Sep-30 20:41 205 4 gusting 4 21.1
2020-Sep-30 20:36 226 5 gusting 6 21.1
2020-Sep-30 20:31 175 2 gusting 2 21.1
2020-Sep-30 20:26 202 3 gusting 4 21.1
2020-Sep-30 20:21 219 6 gusting 8 21.1
2020-Sep-30 20:16 230 6 gusting 8 21.7
2020-Sep-30 20:11 192 6 gusting 8 21.7
2020-Sep-30 20:06 230 0 gusting 2 21.7
2020-Sep-30 20:01 216 3 gusting 4 21.7
2020-Sep-30 19:56 238 6 gusting 8 21.7
2020-Sep-30 19:51 253 21.7
2020-Sep-30 19:46 240 2 gusting 4 21.7
2020-Sep-30 19:41 206 0 gusting 2 21.7
2020-Sep-30 19:36 241 6 gusting 8 21.1
2020-Sep-30 19:31 219 3 gusting 4 21.1
2020-Sep-30 19:26 156 0 gusting 2 21.1
2020-Sep-30 19:21 240 5 gusting 6 21.1
2020-Sep-30 19:16 236 4 gusting 6 20.6
2020-Sep-30 19:11 210 3 gusting 4 20.6
2020-Sep-30 19:05 209 2 gusting 4 21.1
2020-Sep-30 19:00 199 3 gusting 4 21.1
2020-Sep-30 18:55 244 4 gusting 6 21.1
2020-Sep-30 18:50 215 1 gusting 2 21.1
2020-Sep-30 18:45 284 6 gusting 10 21.1
2020-Sep-30 18:40 174 4 gusting 4 21.1
2020-Sep-30 18:35 244 3 gusting 4 21.1
2020-Sep-30 18:30 231 3 gusting 4 21.1
2020-Sep-30 18:25 237 0 gusting 2 21.1
2020-Sep-30 18:20 217 5 gusting 6 20.6
2020-Sep-30 18:10 182 3 gusting 4 20.6
2020-Sep-30 18:05 234 4 gusting 6 20.6
2020-Sep-30 18:00 219 5 gusting 8 20.6
2020-Sep-30 17:55 196 6 gusting 8 20.6
2020-Sep-30 17:50 216 0 gusting 2 20.6
2020-Sep-30 17:44 225 9 gusting 10 20.6
2020-Sep-30 17:39 244 3 gusting 4 20.6
2020-Sep-30 17:34 220 4 gusting 6 20.0
2020-Sep-30 17:29 245 4 gusting 6 20.0
2020-Sep-30 17:24 308 20.0
2020-Sep-30 17:19 234 10 gusting 13 20.0
2020-Sep-30 17:14 217 4 gusting 6 20.0
2020-Sep-30 17:09 327 20.0
2020-Sep-30 17:04 222 5 gusting 6 20.0
2020-Sep-30 16:59 229 4 gusting 4 20.0
2020-Sep-30 16:54 229 4 gusting 4 20.0
2020-Sep-30 16:49 244 2 gusting 4 20.0
2020-Sep-30 16:44 244 2 gusting 4 20.0
2020-Sep-30 16:39 242 1 gusting 2 20.0
2020-Sep-30 16:34 201 1 gusting 2 20.0
2020-Sep-30 16:29 226 3 gusting 4 20.0
2020-Sep-30 16:24 249 7 gusting 10 20.0
2020-Sep-30 16:19 200 19.4
2020-Sep-30 16:13 228 0 gusting 2 19.4
2020-Sep-30 16:08 221 2 gusting 4 19.4
2020-Sep-30 16:03 055 0 gusting 2 19.4
2020-Sep-30 15:58 208 19.4
2020-Sep-30 15:53 202 4 gusting 6 19.4
2020-Sep-30 15:48 220 2 gusting 4 18.9
2020-Sep-30 15:43 342 18.9
2020-Sep-30 15:38 055 18.9
2020-Sep-30 15:33 208 3 gusting 4 18.9
2020-Sep-30 15:28 194 2 gusting 4 18.9
2020-Sep-30 15:23 208 7 gusting 10 18.9
2020-Sep-30 15:18 250 2 gusting 4 18.3
2020-Sep-30 15:13 250 2 gusting 4 18.3
2020-Sep-30 15:08 244 6 gusting 6 18.3
2020-Sep-30 15:03 231 2 gusting 4 17.8
2020-Sep-30 14:58 234 2 gusting 4 17.8
2020-Sep-30 14:53 237 3 gusting 4 17.8
2020-Sep-30 14:47 011 1 gusting 2 17.8
2020-Sep-30 14:42 288 17.2
2020-Sep-30 14:38 288 17.2
2020-Sep-30 14:32 013 0 gusting 2 16.7
2020-Sep-30 14:27 266 5 gusting 6 16.7
2020-Sep-30 14:22 276 16.7
2020-Sep-30 14:17 014 16.7
2020-Sep-30 14:12 284 2 gusting 4 16.1
2020-Sep-30 14:07 244 3 gusting 4 16.1
2020-Sep-30 14:02 244 3 gusting 6 16.1
2020-Sep-30 13:57 205 15.6
2020-Sep-30 13:52 225 1 gusting 2 15.6
2020-Sep-30 13:47 232 1 gusting 2 15.6
2020-Sep-30 13:42 220 3 gusting 4 15.0
2020-Sep-30 13:37 200 0 gusting 2 15.0
2020-Sep-30 13:32 230 4 gusting 6 15.0
2020-Sep-30 13:27 212 2 gusting 2 14.4
2020-Sep-30 13:22 200 2 gusting 4 14.4
2020-Sep-30 13:16 233 3 gusting 4 14.4
2020-Sep-30 13:11 247 4 gusting 4 13.9
2020-Sep-30 13:06 263 3 gusting 4 13.9
2020-Sep-30 13:01 166 13.9
2020-Sep-30 12:56 239 5 gusting 6 13.3
2020-Sep-30 12:51 235 2 gusting 4 13.3
2020-Sep-30 12:46 214 4 gusting 6 12.8
2020-Sep-30 12:41 214 4 gusting 6 12.8
2020-Sep-30 12:36 230 3 gusting 6 12.8
2020-Sep-30 12:31 210 4 gusting 6 12.8
2020-Sep-30 12:26 248 3 gusting 4 12.8
2020-Sep-30 12:21 243 3 gusting 4 12.8
2020-Sep-30 12:16 200 2 gusting 4 12.8
2020-Sep-30 12:11 214 3 gusting 4 12.8
2020-Sep-30 12:06 216 2 gusting 4 12.8
2020-Sep-30 12:01 229 2 gusting 4 12.8
2020-Sep-30 11:56 230 1 gusting 2 12.8
2020-Sep-30 11:51 192 12.8
2020-Sep-30 11:45 227 12.8
2020-Sep-30 11:40 251 0 gusting 2 12.8
2020-Sep-30 11:35 195 2 gusting 4 12.8
2020-Sep-30 11:30 230 2 gusting 4 12.8
2020-Sep-30 11:25 241 0 gusting 2 12.8
2020-Sep-30 11:20 225 0 gusting 2 12.8
2020-Sep-30 11:15 227 1 gusting 2 12.8
2020-Sep-30 11:10 245 0 gusting 2 12.8
2020-Sep-30 11:05 234 3 gusting 4 12.8
2020-Sep-30 10:59 192 0 gusting 2 12.8
2020-Sep-30 10:54 241 3 gusting 4 12.8
2020-Sep-30 10:49 255 0 gusting 2 12.8
2020-Sep-30 10:44 213 12.8
2020-Sep-30 10:39 218 2 gusting 4 12.8
2020-Sep-30 10:34 218 2 gusting 4 12.8
2020-Sep-30 10:29 228 0 gusting 2 12.8
2020-Sep-30 10:23 220 2 gusting 4 12.8
2020-Sep-30 10:18 201 3 gusting 4 12.8
2020-Sep-30 10:13 219 4 gusting 6 12.8
2020-Sep-30 10:08 200 0 gusting 2 12.8
2020-Sep-30 10:03 243 3 gusting 4 12.8
2020-Sep-30 09:58 240 3 gusting 4 12.8
2020-Sep-30 09:52 231 3 gusting 4 12.8
2020-Sep-30 09:47 216 0 gusting 2 12.8
2020-Sep-30 09:42 216 0 gusting 2 12.8
2020-Sep-30 09:37 171 2 gusting 4 12.8
2020-Sep-30 09:32 206 0 gusting 2 12.8
2020-Sep-30 09:27 251 1 gusting 2 12.8
2020-Sep-30 09:21 211 0 gusting 2 12.8
2020-Sep-30 09:16 239 0 gusting 2 12.8
2020-Sep-30 09:11 209 2 gusting 4 12.8
2020-Sep-30 09:06 215 2 gusting 2 12.8
2020-Sep-30 09:01 258 12.8
2020-Sep-30 08:56 222 2 gusting 4 12.8
2020-Sep-30 08:51 250 1 gusting 4 12.8
2020-Sep-30 08:46 195 1 gusting 2 12.8
2020-Sep-30 08:41 226 2 gusting 4 12.8
2020-Sep-30 08:36 231 4 gusting 6 12.8
2020-Sep-30 08:31 217 2 gusting 4 12.8
2020-Sep-30 08:26 210 2 gusting 2 12.8
2020-Sep-30 08:21 236 4 gusting 4 12.8
2020-Sep-30 08:16 238 5 gusting 6 12.8
2020-Sep-30 08:11 212 0 gusting 2 12.8
2020-Sep-30 08:06 214 3 gusting 4 12.8
2020-Sep-30 08:01 209 1 gusting 2 13.3
2020-Sep-30 07:55 244 5 gusting 6 13.3
2020-Sep-30 07:50 244 6 gusting 8 13.3
2020-Sep-30 07:45 208 4 gusting 4 13.3
2020-Sep-30 07:40 224 7 gusting 8 12.8
2020-Sep-30 07:35 236 2 gusting 4 12.8
2020-Sep-30 07:30 238 12.8
2020-Sep-30 07:25 205 0 gusting 2 12.8
2020-Sep-30 07:20 267 6 gusting 6 12.8
2020-Sep-30 07:15 239 2 gusting 4 12.8
2020-Sep-30 07:10 224 2 gusting 4 12.8
2020-Sep-30 07:05 221 2 gusting 4 12.8
2020-Sep-30 06:58 253 3 gusting 4 12.8
2020-Sep-30 06:53 217 3 gusting 4 12.8
2020-Sep-30 06:48 190 3 gusting 4 12.8
2020-Sep-30 06:43 230 2 gusting 4 12.8
2020-Sep-30 06:38 223 12.8
2020-Sep-30 06:32 222 12.8
2020-Sep-30 06:27 220 12.8
2020-Sep-30 06:22 220 12.8
2020-Sep-30 06:17 007 12.8
2020-Sep-30 06:12 226 12.8
2020-Sep-30 06:07 336 12.8
2020-Sep-30 06:02 327 12.8
2020-Sep-30 05:57 293 12.8
2020-Sep-30 05:52 014 12.8
2020-Sep-30 05:47 354 12.8
2020-Sep-30 05:42 044 12.8
2020-Sep-30 05:37 017 12.8
2020-Sep-30 05:32 030 12.8
2020-Sep-30 05:27 354 12.8
2020-Sep-30 05:22 054 12.8
2020-Sep-30 05:17 054 12.8
2020-Sep-30 05:12 316 12.8
2020-Sep-30 05:07 336 12.8
2020-Sep-30 05:02 317 13.3
2020-Sep-30 04:57 208 13.3
2020-Sep-30 04:51 336 13.3
2020-Sep-30 04:46 068 13.3
2020-Sep-30 04:41 342 13.3
2020-Sep-30 04:35 359 0 gusting 2 13.3
2020-Sep-30 04:29 339 13.3
2020-Sep-30 04:24 044 13.3
2020-Sep-30 04:19 292 2 gusting 2 13.3
2020-Sep-30 04:14 351 13.3
2020-Sep-30 04:08 217 13.3
2020-Sep-30 04:03 056 13.3
2020-Sep-30 03:58 207 13.3
2020-Sep-30 03:53 307 13.3
2020-Sep-30 03:48 166 13.3
2020-Sep-30 03:43 317 1 gusting 2 13.9
2020-Sep-30 03:38 251 2 gusting 4 13.9
2020-Sep-30 03:33 351 13.9
2020-Sep-30 03:28 023 13.9
2020-Sep-30 03:23 353 13.9
2020-Sep-30 03:18 173 1 gusting 2 13.9
2020-Sep-30 03:13 346 13.9
2020-Sep-30 03:07 190 13.9
2020-Sep-30 03:02 062 2 gusting 4 14.4
2020-Sep-30 02:57 198 14.4
2020-Sep-30 02:52 207 3 gusting 4 14.4
2020-Sep-30 02:47 204 14.4
2020-Sep-30 02:42 212 4 gusting 6 15.0
2020-Sep-30 02:37 137 0 gusting 2 15.0
2020-Sep-30 02:32 234 4 gusting 6 15.0
2020-Sep-30 02:27 318 0 gusting 2 15.6
2020-Sep-30 02:21 308 0 gusting 2 15.6
2020-Sep-30 02:16 027 1 gusting 2 15.6
2020-Sep-30 02:11 198 15.6
2020-Sep-30 02:06 302 15.6
2020-Sep-30 02:01 232 1 gusting 2 16.1
2020-Sep-30 01:56 354 16.1
2020-Sep-30 01:51 023 16.1
2020-Sep-30 01:46 146 16.1
2020-Sep-30 01:41 186 1 gusting 2 16.1
2020-Sep-30 01:36 356 16.1
2020-Sep-30 01:31 327 2 gusting 2 16.7
2020-Sep-30 01:26 243 16.7
2020-Sep-30 01:21 300 16.7
2020-Sep-30 01:16 286 0 gusting 2 16.7
2020-Sep-30 01:11 236 16.7
2020-Sep-30 01:05 354 17.2
2020-Sep-30 01:00 317 4 gusting 6 17.2
2020-Sep-30 00:55 255 17.2
2020-Sep-30 00:50 196 0 gusting 2 17.2
2020-Sep-30 00:45 210 17.8
2020-Sep-30 00:40 039 17.8
2020-Sep-30 00:35 017 1 gusting 2 17.8
2020-Sep-30 00:30 189 0 gusting 2 17.8
2020-Sep-30 00:25 303 18.3
2020-Sep-30 00:20 151 18.3
2020-Sep-30 00:15 037 18.9
2020-Sep-30 00:10 011 18.9
2020-Sep-30 00:05 293 19.4
2020-Sep-30 00:00 337 20.0
2020-Sep-29 23:55 209 20.0
2020-Sep-29 23:50 247 20.6
2020-Sep-29 23:45 256 20.6
2020-Sep-29 23:40 246 6 gusting 6 21.1
2020-Sep-29 23:35 347 21.1
2020-Sep-29 23:29 241 1 gusting 2 21.7
2020-Sep-29 23:24 176 21.7
2020-Sep-29 23:19 316 0 gusting 2 22.2
2020-Sep-29 23:14 219 8 gusting 10 22.2
2020-Sep-29 23:09 223 1 gusting 2 22.8
2020-Sep-29 23:04 315 22.8
2020-Sep-29 22:59 327 22.8
2020-Sep-29 22:54 230 3 gusting 4 22.8
2020-Sep-29 22:49 142 22.8
2020-Sep-29 22:44 138 22.8
2020-Sep-29 22:39 192 22.8
2020-Sep-29 22:34 158 22.8
2020-Sep-29 22:29 211 23.3
2020-Sep-29 22:24 172 23.3
2020-Sep-29 22:19 108 23.3
2020-Sep-29 22:14 112 23.3
2020-Sep-29 22:09 346 0 gusting 2 23.9
2020-Sep-29 22:04 086 23.9
2020-Sep-29 21:58 049 23.9
2020-Sep-29 21:53 049 23.9
2020-Sep-29 21:48 135 23.9
2020-Sep-29 21:43 015 24.4
2020-Sep-29 21:38 107 2 gusting 4 24.4
2020-Sep-29 21:33 051 24.4
2020-Sep-29 21:28 250 25.0
2020-Sep-29 21:23 177 25.0
2020-Sep-29 21:18 048 25.0
2020-Sep-29 21:13 181 25.0
2020-Sep-29 21:08 208 25.0
2020-Sep-29 21:03 135 25.0
2020-Sep-29 20:58 206 25.0
2020-Sep-29 20:53 031 25.0
2020-Sep-29 20:48 027 2 gusting 4 25.0
2020-Sep-29 20:43 173 25.0
2020-Sep-29 20:38 166 25.0
2020-Sep-29 20:33 351 25.6
2020-Sep-29 20:28 227 1 gusting 4 25.6
2020-Sep-29 20:22 143 2 gusting 4 25.6
2020-Sep-29 20:17 159 25.6
2020-Sep-29 20:12 346 25.6
2020-Sep-29 20:07 163 25.6
2020-Sep-29 20:02 025 25.6
2020-Sep-29 19:57 094 1 gusting 2 25.6
2020-Sep-29 19:52 064 0 gusting 2 25.6
2020-Sep-29 19:47 153 0 gusting 2 25.6
2020-Sep-29 19:42 037 25.6
2020-Sep-29 19:37 196 25.6
2020-Sep-29 19:32 259 25.6
2020-Sep-29 19:27 177 25.6
2020-Sep-29 19:22 353 25.6
2020-Sep-29 19:17 188 1 gusting 2 25.6
2020-Sep-29 19:12 083 26.1
2020-Sep-29 19:06 128 26.7
2020-Sep-29 19:01 041 26.7
2020-Sep-29 18:56 087 26.7
2020-Sep-29 18:51 287 1 gusting 2 26.7
2020-Sep-29 18:47 289 27.2
2020-Sep-29 18:41 179 27.2
2020-Sep-29 18:36 226 0 gusting 2 27.8
2020-Sep-29 18:31 210 27.8
2020-Sep-29 18:26 167 27.2
2020-Sep-29 18:21 231 27.2
2020-Sep-29 18:16 038 27.2
2020-Sep-29 18:11 217 0 gusting 2 26.7
2020-Sep-29 18:06 145 1 gusting 2 26.7
2020-Sep-29 18:01 244 0 gusting 2 26.1
2020-Sep-29 17:55 184 0 gusting 2 26.1
2020-Sep-29 17:50 256 26.1
2020-Sep-29 17:45 149 0 gusting 2 26.1
2020-Sep-29 17:40 225 26.1
2020-Sep-29 17:35 220 0 gusting 2 25.6
2020-Sep-29 17:30 198 25.6
2020-Sep-29 17:25 182 1 gusting 2 25.6
2020-Sep-29 17:20 153 0 gusting 2 25.0
2020-Sep-29 17:15 227 2 gusting 2 25.0
2020-Sep-29 17:10 245 3 gusting 4 25.0
2020-Sep-29 17:05 226 4 gusting 6 24.4
2020-Sep-29 17:00 123 0 gusting 2 24.4
2020-Sep-29 16:55 152 24.4
2020-Sep-29 16:50 242 24.4
2020-Sep-29 16:45 209 24.4
2020-Sep-29 16:40 211 1 gusting 2 24.4
2020-Sep-29 16:35 190 0 gusting 2 24.4
2020-Sep-29 16:30 275 0 gusting 2 24.4
2020-Sep-29 16:24 176 24.4
2020-Sep-29 16:19 163 1 gusting 2 24.4
2020-Sep-29 16:14 188 25.0
2020-Sep-29 16:09 230 1 gusting 2 25.0
2020-Sep-29 16:04 132 25.0